TimeCDT,TemperatureF,Dew PointF,Humidity,Sea Level PressureIn,VisibilityMPH,Wind Direction,Wind SpeedMPH,Gust SpeedMPH,PrecipitationIn,Events,Conditions,WindDirDegrees,DateUTC
12:15 AM,42.8,35.6,76,30.03,10.0,Calm,Calm,-,N/A,,Clear,0,2012-11-01 05:15:00
12:35 AM,42.8,35.6,76,30.02,10.0,Calm,Calm,-,N/A,,Clear,0,2012-11-01 05:35:00
12:56 AM,42.8,35.6,76,30.02,10.0,Calm,Calm,-,N/A,,Clear,0,2012-11-01 05:56:00
1:15 AM,42.8,35.6,76,30.02,10.0,Calm,Calm,-,N/A,,Clear,0,2012-11-01 06:15:00
1:35 AM,41.0,35.6,81,30.03,10.0,Calm,Calm,-,N/A,,Clear,0,2012-11-01 06:35:00
1:56 AM,41.0,35.6,81,30.03,10.0,Calm,Calm,-,N/A,,Clear,0,2012-11-01 06:56:00
2:15 AM,39.2,35.6,87,30.03,10.0,Calm,Calm,-,N/A,,Clear,0,2012-11-01 07:15:00
2:35 AM,39.2,35.6,87,30.03,10.0,Calm,Calm,-,N/A,,Clear,0,2012-11-01 07:35:00
2:55 AM,39.2,35.6,87,30.03,10.0,Calm,Calm,-,N/A,,Clear,0,2012-11-01 07:55:00
3:15 AM,39.2,35.6,87,30.03,10.0,Calm,Calm,-,N/A,,Clear,0,2012-11-01 08:15:00
3:35 AM,39.2,35.6,87,30.03,10.0,Calm,Calm,-,N/A,,Clear,0,2012-11-01 08:35:00
4:15 AM,39.2,35.6,87,30.03,10.0,Calm,Calm,-,N/A,,Clear,0,2012-11-01 09:15:00
4:35 AM,37.4,33.8,87,30.03,10.0,Calm,Calm,-,N/A,,Clear,0,2012-11-01 09:35:00
4:55 AM,39.2,35.6,87,30.03,10.0,Calm,Calm,-,N/A,,Clear,0,2012-11-01 09:55:00
5:16 AM,39.2,35.6,87,30.03,10.0,Calm,Calm,-,N/A,,Clear,0,2012-11-01 10:16:00
5:35 AM,39.2,35.6,87,30.03,10.0,Calm,Calm,-,N/A,,Clear,0,2012-11-01 10:35:00
6:15 AM,39.2,35.6,87,30.03,10.0,Calm,Calm,-,N/A,,Clear,0,2012-11-01 11:15:00
6:35 AM,37.4,35.6,93,30.03,10.0,Calm,Calm,-,N/A,,Clear,0,2012-11-01 11:35:00
6:55 AM,37.4,35.6,93,30.03,10.0,Calm,Calm,-,N/A,,Clear,0,2012-11-01 11:55:00
7:15 AM,37.4,33.8,87,30.03,10.0,Calm,Calm,-,N/A,,Clear,0,2012-11-01 12:15:00
7:36 AM,37.4,33.8,87,30.03,10.0,Calm,Calm,-,N/A,,Clear,0,2012-11-01 12:36:00
8:35 AM,42.8,37.4,81,30.03,10.0,Calm,Calm,-,N/A,,Clear,0,2012-11-01 13:35:00
8:55 AM,46.4,37.4,71,30.04,10.0,SSW,3.5,-,N/A,,Clear,210,2012-11-01 13:55:00
9:15 AM,48.2,39.2,71,30.04,10.0,SSE,3.5,-,N/A,,Clear,150,2012-11-01 14:15:00
9:35 AM,50.0,39.2,66,30.04,10.0,SSE,3.5,-,N/A,,Clear,160,2012-11-01 14:35:00
9:55 AM,53.6,39.2,58,30.05,10.0,SSE,3.5,-,N/A,,Clear,160,2012-11-01 14:55:00
10:15 AM,55.4,41.0,58,30.04,10.0,SSE,3.5,-,N/A,,Clear,150,2012-11-01 15:15:00
10:55 AM,60.8,41.0,48,30.04,10.0,South,5.8,-,N/A,,Clear,170,2012-11-01 15:55:00
11:15 AM,64.4,41.0,42,30.04,10.0,South,3.5,-,N/A,,Clear,170,2012-11-01 16:15:00
11:35 AM,64.4,41.0,42,30.03,10.0,SE,4.6,-,N/A,,Clear,140,2012-11-01 16:35:00
12:15 PM,66.2,41.0,40,30.02,10.0,WSW,3.5,-,N/A,,Clear,240,2012-11-01 17:15:00
12:35 PM,68.0,41.0,37,30.01,10.0,SW,4.6,-,N/A,,Clear,220,2012-11-01 17:35:00
1:15 PM,69.8,41.0,35,29.99,10.0,SSW,6.9,-,N/A,,Clear,210,2012-11-01 18:15:00
1:35 PM,71.6,39.2,31,29.99,10.0,SW,3.5,-,N/A,,Clear,230,2012-11-01 18:35:00
2:35 PM,73.4,39.2,29,29.96,10.0,West,4.6,-,N/A,,Clear,260,2012-11-01 19:35:00
2:55 PM,73.4,39.2,29,29.95,10.0,SSW,3.5,-,N/A,,Clear,200,2012-11-01 19:55:00
3:35 PM,73.4,39.2,29,29.94,10.0,WSW,8.1,-,N/A,,Clear,250,2012-11-01 20:35:00
3:55 PM,73.4,39.2,29,29.94,10.0,West,9.2,-,N/A,,Clear,280,2012-11-01 20:55:00
4:15 PM,73.4,39.2,29,29.94,10.0,WSW,6.9,-,N/A,,Clear,250,2012-11-01 21:15:00
4:55 PM,73.4,39.2,29,29.93,10.0,WSW,6.9,-,N/A,,Clear,250,2012-11-01 21:55:00
5:15 PM,73.4,39.2,29,29.93,5.0,West,6.9,-,N/A,,Clear,260,2012-11-01 22:15:00
5:35 PM,71.6,39.2,31,29.93,10.0,WSW,5.8,-,N/A,,Clear,250,2012-11-01 22:35:00
5:56 PM,69.8,41.0,35,29.93,10.0,WSW,4.6,-,N/A,,Clear,250,2012-11-01 22:56:00
6:15 PM,69.8,41.0,35,29.94,10.0,West,3.5,-,N/A,,Clear,270,2012-11-01 23:15:00
6:35 PM,66.2,39.2,37,29.94,10.0,WSW,3.5,-,N/A,,Clear,240,2012-11-01 23:35:00
7:15 PM,59.0,41.0,51,29.95,10.0,SW,3.5,-,N/A,,Clear,220,2012-11-02 00:15:00
7:55 PM,57.2,39.2,51,29.95,10.0,SSW,3.5,-,N/A,,Clear,210,2012-11-02 00:55:00
8:16 PM,55.4,41.0,58,29.95,10.0,West,3.5,-,N/A,,Clear,280,2012-11-02 01:16:00
8:35 PM,55.4,41.0,58,29.95,10.0,West,4.6,-,N/A,,Clear,260,2012-11-02 01:35:00
8:55 PM,55.4,41.0,58,29.95,10.0,WSW,3.5,-,N/A,,Clear,240,2012-11-02 01:55:00
9:16 PM,53.6,41.0,62,29.95,10.0,SW,4.6,-,N/A,,Clear,230,2012-11-02 02:16:00
9:35 PM,53.6,39.2,58,29.95,10.0,Calm,Calm,-,N/A,,Clear,0,2012-11-02 02:35:00
9:55 PM,51.8,39.2,62,29.95,10.0,SW,3.5,-,N/A,,Clear,220,2012-11-02 02:55:00
10:35 PM,51.8,39.2,62,29.95,10.0,Calm,Calm,-,N/A,,Clear,0,2012-11-02 03:35:00
10:55 PM,51.8,39.2,62,29.95,10.0,Calm,Calm,-,N/A,,Clear,0,2012-11-02 03:55:00
11:15 PM,50.0,41.0,71,29.96,10.0,Calm,Calm,-,N/A,,Clear,0,2012-11-02 04:15:00
11:36 PM,50.0,41.0,71,29.96,10.0,ENE,3.5,-,N/A,,Clear,60,2012-11-02 04:36:00
11:55 PM,48.2,41.0,76,29.96,10.0,East,4.6,-,N/A,,Clear,80,2012-11-02 04:55:00